Terminal Aerodrome Forecast
Issued by NWS Pittsburgh, PA

Current Version | Previous Version | Graphics & Text | Print | Product List | Glossary On
Versions: 1 2 3 4 5 6 7 8 9 10 11 12 13 14 15 16 17 18 19 20 21 22 23 24 25 26 27 28
000
FTUS41 KPBZ 281100
TAFPIT
TAF
KPIT 281120Z 2812/2918 21010KT P6SM BKN250
     FM281500 22012G24KT P6SM SCT040
     FM282200 24013G26KT 4SM -SHRA BKN025
     FM290200 26010G20KT P6SM BKN035
     FM290600 27005KT P6SM SCT080=

USA.gov is the U.S. government's official web portal to all federal, state and local government web resources and services.